Regional Weather Roundup
Issued by NWS

Home | Current Version | Previous Version | Text Only | Print | Product List | Glossary On
Versions: 1 2 3 4 5 6 7 8 9 10 11 12 13 14 15 16 17 18 19 20 21 22 23 24 25 26 27 28 29 30 31 32 33 34 35 36 37 38 39 40 41 42 43 44 45 46 47 48 49 50
000
ASUS43 KMKX 241211
RWRWI

WISCONSIN REGIONAL WEATHER ROUNDUP
NATIONAL WEATHER SERVICE MILWAUKEE/SULLIVAN WI
700 AM CDT FRI OCT 24 2014

NOTE: "FAIR" INDICATES FEW OR NO CLOUDS BELOW 12,000 FEET WITH NO
SIGNIFICANT WEATHER AND/OR OBSTRUCTIONS TO VISIBILITY.

WIZ001-002-006>008-014>016-023>028-241300-
NORTHWEST WISCONSIN

CITY           SKY/WX    TMP DP  RH WIND       PRES   REMARKS
SUPERIOR ARPT  FOG       37  37 100 CALM      29.89F VSB 1/2
6HR MIN TEMP:  35; 6HR MAX TEMP:  39;

ASHLAND        CLOUDY    45  44  97 SW5       29.91F FOG
6HR MIN TEMP:  42; 6HR MAX TEMP:  48;

HAYWARD        CLOUDY    48  46  93 S7        29.94S
6HR MIN TEMP:  48; 6HR MAX TEMP:  49;

SIREN          MOCLDY    47  46  97 SE7       29.91F FOG
6HR MIN TEMP:  47; 6HR MAX TEMP:  50;

CUMBERLAND     CLOUDY    46  46 100 S7        29.94F FOG
RICE LAKE      CLOUDY    49  47  95 SE5       29.97S FOG
6HR MIN TEMP:  49; 6HR MAX TEMP:  50;

CHETEK         CLOUDY    48  48  97 SE9       29.96F FOG
6HR MIN TEMP:  48; 6HR MAX TEMP:  49;

LADYSMITH      CLOUDY    47  47  97 S5        29.99F FOG
6HR MIN TEMP:  47; 6HR MAX TEMP:  49;

EAU CLAIRE     CLOUDY    49  48  97 S7        29.97F
6HR MIN TEMP:  49; 6HR MAX TEMP:  50;

MENOMONIE      CLOUDY    50  48  93 SE8       29.96F FOG
NEW RICHMOND   MOCLDY    45  45 100 SE5       29.93F FOG
6HR MIN TEMP:  45; 6HR MAX TEMP:  49;

OSCEOLA        MOCLDY    47  47 100 SE8       29.94F FOG
6HR MIN TEMP:  45; 6HR MAX TEMP:  49;

$$

WIZ003>005-009-010-017-018-241300-
NORTH CENTRAL WISCONSIN

CITY           SKY/WX    TMP DP  RH WIND       PRES   REMARKS
MANITOWISH WTR FOG       44  44 100 S6        29.96F VSB 1
6HR MIN TEMP:  44; 6HR MAX TEMP:  45;

ARBOR VITAE    FOG       44  43  97 S6        29.97F VSB 1/2
6HR MIN TEMP:  44; 6HR MAX TEMP:  46;

WOODRUFF       FOG       44  43  97 S6        29.97F VSB 1/2
6HR MIN TEMP:  44; 6HR MAX TEMP:  46;

RHINELANDER    FOG       43  43 100 S5        29.99F VSB 1/4
6HR MIN TEMP:  43; 6HR MAX TEMP:  44;

EAGLE RIVER    FOG       43  43 100 CALM      29.97F VSB 1/2
6HR MIN TEMP:  43; 6HR MAX TEMP:  44;

LAND O LAKES   FOG       44  44 100 S6        29.97F VSB 1/2
6HR MIN TEMP:  44; 6HR MAX TEMP:  45;

PHILLIPS       FOG       45  45 100 S5        29.96F VSB 1
6HR MIN TEMP:  45; 6HR MAX TEMP:  46;

TOMAHAWK       FOG       43  42  97 CALM      29.99F VSB 3/4
6HR MIN TEMP:  43; 6HR MAX TEMP:  45;

MEDFORD        FOG       43  43 100 S6        29.98F VSB 1/4
6HR MIN TEMP:  43; 6HR MAX TEMP:  45;

MERRILL        FOG       44  44 100 CALM      30.00F VSB 1/2
6HR MIN TEMP:  44; 6HR MAX TEMP:  46;

$$

WIZ029-030-035-036-043>047-241300-
CENTRAL WISCONSIN

CITY           SKY/WX    TMP DP  RH WIND       PRES   REMARKS
WAUSAU         FOG       44  44 100 W5        30.00S VSB 3/4
6HR MIN TEMP:  44; 6HR MAX TEMP:  46;

MOSINEE        FOG       45  45 100 S3        30.02S VSB 1/4
MARSHFIELD     FOG       46  45  96 S3        30.00S VSB 1/4
6HR MIN TEMP:  46; 6HR MAX TEMP:  47;

STEVENS POINT  FOG       44  44 100 W3        30.02S VSB 1/2
6HR MIN TEMP:  44; 6HR MAX TEMP:  45; 6HR PCP:  0.01;

WAUPACA        CLOUDY    49  47  96 W3        30.03S FOG
6HR MIN TEMP:  48; 6HR MAX TEMP:  49;

WAUTOMA        CLOUDY    46  46 100 SW5       30.03F FOG
6HR MIN TEMP:  47; 6HR MAX TEMP:  48;

WISC RAPIDS    FOG       46  46 100 S5        30.04R VSB 1/2
6HR MIN TEMP:  46; 6HR MAX TEMP:  47;

CAMP DOUGLAS   CLOUDY    46  46 100 S3        30.03R FOG
6HR MIN TEMP:  47; 6HR MAX TEMP:  48;

$$

WIZ011>013-019>022-031-037>040-048>050-241300-
NORTHEAST WISCONSIN

CITY           SKY/WX    TMP DP  RH WIND       PRES   REMARKS
ANTIGO         FOG       42  42 100 W6        30.01S VSB 1/4
6HR MIN TEMP:  42; 6HR MAX TEMP:  44;

SHAWANO        CLOUDY    47  46  95 W5        30.02S FOG
6HR MIN TEMP:  47; 6HR MAX TEMP:  48;

OCONTO         CLOUDY    47  47 100 W5        30.01S
6HR MIN TEMP:  47; 6HR MAX TEMP:  48;

STURGEON BAY   CLOUDY    48  45  87 W6        30.02S
6HR MIN TEMP:  48; 6HR MAX TEMP:  48;

GREEN BAY      CLOUDY    48  47  96 SW5       30.02S FOG
6HR MIN TEMP:  48; 6HR MAX TEMP:  49;

MANITOWOC      CLOUDY    49  48  97 CALM      30.03S FOG
6HR MIN TEMP:  49; 6HR MAX TEMP:  50;

APPLETON         N/A     46  46 100 VRB5      30.03S FOG
CLINTONVILLE   CLOUDY    46  45  93 W5        30.02S
OSHKOSH        CLOUDY    48  48 100 VRB3      30.02F FOG
6HR MIN TEMP:  48; 6HR MAX TEMP:  48;

$$

WIZ032>034-041-042-053>061-241300-
SOUTHWEST WISCONSIN

CITY           SKY/WX    TMP DP  RH WIND       PRES   REMARKS
LA CROSSE      CLOUDY    51  50  96 S8        30.00S FOG
6HR MIN TEMP:  51; 6HR MAX TEMP:  51;

SPARTA         CLOUDY    48  47  99 CALM      30.02S FOG
6HR MIN TEMP:  47; 6HR MAX TEMP:  48;

VIROQUA        CLOUDY    48  48 100 S3        30.01R VSB 1/4
6HR MIN TEMP:  47; 6HR MAX TEMP:  48; 6HR PCP:  0.01;

BOSCOBEL       CLOUDY    51  50  96 CALM      30.03S FOG
6HR MIN TEMP:  50; 6HR MAX TEMP:  51;

PRAIRIE DU CHI FOG       51  50  96 CALM      30.02S VSB 3/4
6HR MIN TEMP:  50; 6HR MAX TEMP:  51;

PLATTEVILLE    CLOUDY    50  49  97 SE5       30.04S VSB 1/4
6HR MIN TEMP:  49; 6HR MAX TEMP:  50;

$$

WIZ056-057-062-063-064-067-068-241300-
SOUTH CENTRAL WISCONSIN

CITY           SKY/WX    TMP DP  RH WIND       PRES   REMARKS
REEDSBURG      FOG       46  46 100 S3        30.03S VSB 3/4
6HR MIN TEMP:  46; 6HR MAX TEMP:  47;

BARABOO/DELLS  FOG       46  45  96 S5        30.03F VSB<1/4
6HR MIN TEMP:  46; 6HR MAX TEMP:  47;

LONE ROCK      CLOUDY    52  48  86 CALM      30.03F FOG
6HR MIN TEMP:  52; 6HR MAX TEMP:  52;

MINERAL POINT  FOG       50  48  93 CALM      30.03F VSB 1/4
MADISON        FOG       49  48  97 CALM      30.03F VSB 1
6HR MIN TEMP:  49; 6HR MAX TEMP:  51;

MIDDLETON      CLOUDY    49  49 100 CALM      30.04F VSB 1/4
6HR MIN TEMP:  49; 6HR MAX TEMP:  51;

WATERTOWN      CLOUDY    47  47 100 CALM      30.04F FOG
6HR MIN TEMP:  47; 6HR MAX TEMP:  50;

MONROE         FOG       48  48 100 CALM      30.04F VSB 1/4
JANESVILLE     CLOUDY    52  48  87 CALM      30.05S FOG
$$

WIZ051-052-058>065-066-070>072-241300-
SOUTHEAST WISCONSIN

CITY           SKY/WX    TMP DP  RH WIND       PRES   REMARKS
MILWAUKEE      CLOUDY    51  49  92 W6        30.04S FOG
6HR MIN TEMP:  51; 6HR MAX TEMP:  52;

WAUKESHA       CLOUDY    46  46 100 W6        30.05S FOG
MILWAUKEE/TIMM DRIZZLE   50  46  87 W7        30.05R FOG
RACINE         CLOUDY    51  48  89 W5        30.06S FOG
6HR MIN TEMP:  51; 6HR MAX TEMP:  53;

BURLINGTON     CLOUDY    48  47  99 CALM      30.05S FOG
6HR MIN TEMP:  47; 6HR MAX TEMP:  49;

KENOSHA        CLOUDY    50  49  96 W5        30.05S FOG
6HR MIN TEMP:  46; 6HR MAX TEMP:  52;

FOND DU LAC    CLOUDY    48  46  93 SW3       30.03F FOG
6HR MIN TEMP:  48; 6HR MAX TEMP:  49;

SHEBOYGAN      CLOUDY    48  47  96 W5        30.03S FOG
6HR MIN TEMP:  48; 6HR MAX TEMP:  50;

WEST BEND      CLOUDY    46  45  93 W7        30.04S FOG
JUNEAU         CLOUDY    47  46  99 CALM      30.05F FOG
6HR MIN TEMP:  46; 6HR MAX TEMP:  49;

$$

LSZ147-162-241300-
LAKE SUPERIOR

STATION/POSITION TIME  TEMP    WIND        PRES    WAVE
                       AIR SEA DIR/SP/G            HT/PER
                 (UTC) (F)     (DEG/KT/KT) (MB)    (FT/S)
W MID LAKE BUOY  1150   47 46  180/  8/ 10 1012.7F   1/ 3
DEVILS ISLAND    1200   49     180/  4/  5 1012.7F
PORT WING        1140   49     190/  2/  4 1012.5F
SAXON HARBOR     1100   51     190/  4/  8 1012.9F
$$

LMZ867-665-643>646-241300-
LAKE MICHIGAN

STATION/POSITION TIME  TEMP    WIND        PRES    WAVE



USA.gov is the U.S. government's official web portal to all federal, state and local government web resources and services.